Home   Weather   Monterey   Past weeks

Flag for USA Past Weather in Monterey, California, USA — Yesterday and Last 2 Weeks

Now
40 °F

Clear.


Feels Like: 38 °F
Forecast: 42 / 56 °F
Wind: 3 mph from Southeast

Location: Monterey Peninsula Airport

Current Time: Jan 17, 2017 at 1:13:20 am

Latest Report: Jan 16, 2017 at 11:54 pm


Visibility: 10 mi

Pressure: 30.12 "Hg

Humidity: 93%

Dew Point: 38 °F

Location of MontereyLocation

Past Weather in Monterey — Graph

°F

Monterey Temperature Yesterday

Maximum temperature yesterday: 58 °F (at 1:54 pm)
Minimum temperature yesterday: 35 °F (at 5:54 am)
Average temperature yesterday: 45 °F

High & Low Weather Summary for the Past Weeks

 TemperatureHumidityPressure
High67 °F (Jan 8, 10:54 am)100% (Jan 4, 11:42 pm)30.25 "Hg (Jan 4, 11:42 pm)
Low31 °F (Jan 6, 6:54 am)47% (Jan 16, 1:54 pm)29.80 "Hg (Jan 10, 8:05 pm)
Average52 °F83%30.05 "Hg
* Reported Jan 1 11:54 pm — Jan 16 11:54 pm, Monterey, Weather by CustomWeather, © 2017

Note: Actual official high and low records may vary slightly from our data, if they occured in-between our weather recording intervals... More about our weather records

Advertising

Monterey Weather History for the Previous 24 Hours

Scroll right to see more
 ConditionsComfort  
Time TempWeatherWind HumidityBarometerVisibility
11:54 pm
Mon, Jan 16
40 °FClear.3 mph93%30.12 "Hg10 mi
10:54 pm41 °FClear.3 mph93%30.13 "Hg10 mi
9:54 pm43 °FClear.3 mph93%30.13 "Hg10 mi
8:54 pm44 °FClear.5 mph89%30.15 "Hg10 mi
7:54 pm44 °FClear.5 mph89%30.14 "Hg10 mi
6:54 pm47 °FClear.No wind83%30.13 "Hg10 mi
5:54 pm49 °FClear.3 mph84%30.13 "Hg10 mi
4:54 pm53 °FSunny.No wind69%30.11 "Hg10 mi
3:54 pm55 °FSunny.6 mph67%30.13 "Hg10 mi
2:54 pm58 °FSunny.8 mph51%30.12 "Hg10 mi
1:54 pm58 °FSunny.6 mph47%30.12 "Hg10 mi
12:54 pm55 °FSunny.3 mph59%30.13 "Hg10 mi
11:54 am54 °FSunny.No wind57%30.17 "Hg10 mi
10:54 am49 °FSunny.6 mph74%30.18 "Hg10 mi
9:54 am44 °FSunny.6 mph79%30.19 "Hg10 mi
8:54 am40 °FSunny.No wind83%30.18 "Hg10 mi
7:54 am37 °FSunny.6 mph89%30.17 "Hg10 mi
6:54 am37 °FClear.9 mph89%30.16 "Hg10 mi
5:54 am35 °FClear.5 mph96%30.16 "Hg10 mi
4:54 am37 °FClear.5 mph89%30.14 "Hg10 mi
3:54 am36 °FClear.5 mph92%30.14 "Hg10 mi
2:54 am38 °FClear.3 mph93%30.13 "Hg10 mi
1:54 am38 °FClear.No wind97%30.14 "Hg10 mi
Weather by CustomWeather, © 2017

See weather overviewHow to use our weather pages